Weather Service Report


143 
ASUS43 KFSD 210310
RWRFSD

WEATHER ROUNDUP FOR SE SOUTH DAKOTA/SW MINNESOTA/NW IOWA
NATIONAL WEATHER SERVICE SIOUX FALLS SD
900 PM CST MON FEB 20 2017

NOTE: "FAIR" INDICATES FEW OR NO CLOUDS BELOW 12,000 FEET WITH NO
SIGNIFICANT WEATHER AND OR OBSTRUCTIONS TO VISIBILITY.


SDZ038>040-050-052>070-210400-
SOUTHEAST SOUTH DAKOTA
  
CITY           SKY/WX    TMP DP  RH WIND       PRES   REMARKS
BROOKINGS      CLEAR     39  37  92 W5        29.85R                  
CHAMBERLAIN    CLEAR     38  33  79 CALM      29.86S                  
HURON          CLEAR     37  37 100 S6        29.85R                  
MADISON        FAIR      41  41 100 W8        29.86S                  
MITCHELL       CLEAR     42  37  82 SW7       29.88R                  
SIOUX FALLS    CLEAR     39  37  92 CALM      29.88R                  
WINNER         FAIR      44  28  53 S8        29.87F                  
YANKTON        CLEAR     43  36  75 SW5       29.89R                  
$$

MNZ071-072-080-081-089-090-097-098-210400-
SOUTHWEST MINNESOTA
  
CITY           SKY/WX    TMP DP  RH WIND       PRES   REMARKS
FAIRMONT       CLEAR     46  41  82 W13       29.85R                  
JACKSON        CLEAR     43  37  81 W12G18    29.86R                  
LUVERNE        CLEAR     36  34  93 SW3       29.89R                  
MARSHALL       CLEAR     41  38  89 W8        29.84R                  
MONTEVIDEO     CLEAR     37  37 100 CALM      29.84R                  
PIPESTONE      CLEAR     39  36  87 W9        29.86R                  
REDWOOD FALLS  CLEAR     41  37  86 W10       29.82R                  
TRACY          CLEAR     44  41  88 W8        29.84S                  
WINDOM         CLEAR     43  39  87 W9        29.85R                  
WORTHINGTON    CLEAR     41  39  93 W9        29.87R                  
$$

IAZ001>003-012>014-020>022-031-032-NEZ013-014-SDZ071-210400-
NORTHWEST IOWA
  
CITY           SKY/WX    TMP DP  RH WIND       PRES   REMARKS
CHEROKEE       CLEAR     44  43  95 CALM      29.90S                  
DENISON        PTCLDY    46  43  87 W7        29.90S                  
ESTHERVILLE    CLEAR     44  42  93 W16       29.85R                  
LE MARS        CLEAR     39  37  93 CALM      29.91S                  
SHELDON        CLEAR     41  41 100 W6        29.87S                  
SIOUX CITY     CLEAR     45  41  86 S3        29.91S                  
SPENCER        CLEAR     43  40  89 W8        29.88R                  
STORM LAKE     CLEAR     43  41  93 W14       29.90R                  
$$
 
ABBREVIATIONS USED IN REMARKS
   TC - TEMPERATURE IN CELSIUS
  WCI - WIND CHILL INDEX
   HX - HEAT INDEX
  VSB - VISIBILITY

  


144 
ASUS43 KFSD 210310
RWRSD 

WEATHER ROUNDUP FOR SOUTH DAKOTA
NATIONAL WEATHER SERVICE SIOUX FALLS SD
900 PM CST MON FEB 20 2017

NOTE: "FAIR" INDICATES FEW OR NO CLOUDS BELOW 12,000 FEET WITH NO
SIGNIFICANT WEATHER AND/OR OBSTRUCTIONS TO VISIBILITY.


SDZ001>005-009-010-012>017-210400-
NORTHWEST AND NORTH CENTRAL SOUTH DAKOTA
  
CITY           SKY/WX    TMP DP  RH WIND       PRES   REMARKS
BUFFALO          N/A     47  25  42 S12       29.65S                  
FAITH            N/A     42  29  59 S14       29.75F                  
MOBRIDGE       CLEAR     43  34  70 E9        29.75F                  
$$
 
SDZ012>016-024>037-041>051-057-063-072>074-210400-
SOUTHWEST AND SOUTH CENTRAL SOUTH DAKOTA
  
CITY           SKY/WX    TMP DP  RH WIND       PRES   REMARKS
RAPID CTY ARPT PTCLDY    49  29  46 S9        29.78F                  
PIERRE         CLEAR     40  30  67 SE5       29.80F                  
CUSTER         CLOUDY    47  27  45 W18G31    29.87S                  
ELLSWORTH AFB  PTCLDY    50  29  43 S9        29.76F                  
PHILIP         PTCLDY    41  28  60 E5        29.80F                  
PINE RIDGE     CLEAR     45  31  58 SW5       29.87F                  
SPEARFISH      FAIR      55  28  35 SW16G28   29.75S                  
WINNER         FAIR      44  28  53 S8        29.87F                  
$$
 
SDZ004>011-016>023-039-040-210400-
NORTHEAST SOUTH DAKOTA
  
CITY           SKY/WX    TMP DP  RH WIND       PRES   REMARKS
ABERDEEN       CLEAR     33  30  88 S8        29.83R WCI  26          
WATERTOWN      CLEAR     38  36  92 W9        29.83R                  
BROOKINGS      CLEAR     39  37  92 W5        29.85R                  
SISSETON         N/A     40  36  86 W9        29.80R                  
$$
 
SDZ017-020-022-023-036>040-048>070-210400-
SOUTHEAST SOUTH DAKOTA
  
CITY           SKY/WX    TMP DP  RH WIND       PRES   REMARKS
SIOUX FALLS    CLEAR     39  37  92 CALM      29.88R                  
HURON          CLEAR     37  37 100 S6        29.85R                  
CHAMBERLAIN    CLEAR     38  33  79 CALM      29.86S                  
MITCHELL       CLEAR     42  37  82 SW7       29.88R                  
YANKTON        CLEAR     43  36  75 SW5       29.89R                  
$$
 
ABBREVIATIONS USED IN REMARKS
   TC - TEMPERATURE IN CELSIUS
  WCI - WIND CHILL INDEX
   HX - HEAT INDEX
  VSB - VISIBILITY

  

Return to Home page


Western Regional Climate Center, wrcc@dri.edu